Volver al catálogo

COSMOS 943

ActivoMilitarLEO
NORAD 10289·PAYLOAD·🇷🇺 Russia

Lanzado Aug 24, 1977 desde Plesetsk Cosmodrome

Loading…

Próximos Pases (próximas 24 horas)

TLE

ActualizadoSource: Space-Track

Época: Sep 14, 2026, 14:25 UTC

1 10289U 77079E   26257.60110332 -.00000007  00000-0  55239-4 0  9994
2 10289  74.0221 111.0548 0007154  69.6765 318.6359 12.52100112216979

Sigue COSMOS 943 en tiempo real con AllMySat

Download on the App Store